Time,TemperatureF,DewpointF,PressureIn,WindDirection,WindDirectionDegrees,WindSpeedMPH,WindSpeedGustMPH,Humidity,HourlyPrecipIn,Conditions,Clouds,dailyrainin,SoftwareType,DateUTC
2013-03-08 00:00:00,29.1,28.9,29.79,North,0,4.7,-999.0,99,-99.99,,,0.00,Acu-Link.com,2013-03-08 05:00:00,
2013-03-08 00:16:00,29.1,28.9,29.79,NNW,337,5.1,-999.0,99,-99.99,,,0.00,Acu-Link.com,2013-03-08 05:16:00,
2013-03-08 00:31:00,28.9,28.7,29.79,NW,315,5.8,-999.0,99,-99.99,,,0.00,Acu-Link.com,2013-03-08 05:31:00,
2013-03-08 00:46:00,28.9,28.7,29.79,NW,315,4.7,-999.0,99,-99.99,,,0.00,Acu-Link.com,2013-03-08 05:46:00,
2013-03-08 01:01:00,28.9,28.7,29.79,NNW,337,4.3,-999.0,99,-99.99,,,0.00,Acu-Link.com,2013-03-08 06:01:00,
2013-03-08 01:16:00,28.8,28.5,29.79,NNW,337,5.8,-999.0,99,-99.99,,,0.00,Acu-Link.com,2013-03-08 06:16:00,
2013-03-08 01:32:00,28.8,28.5,29.78,NNW,337,8.3,-999.0,99,-99.99,,,0.00,Acu-Link.com,2013-03-08 06:32:00,
2013-03-08 01:47:00,28.8,28.5,29.77,NNW,337,3.8,-999.0,99,-99.99,,,0.00,Acu-Link.com,2013-03-08 06:47:00,
2013-03-08 02:02:00,28.8,28.5,29.76,NNW,337,6.3,-999.0,99,-99.99,,,0.00,Acu-Link.com,2013-03-08 07:02:00,
2013-03-08 02:17:00,28.8,28.5,29.76,NNW,337,5.8,-999.0,99,-99.99,,,0.00,Acu-Link.com,2013-03-08 07:17:00,
2013-03-08 02:32:00,28.8,28.5,29.75,NW,315,4.3,-999.0,99,-99.99,,,0.00,Acu-Link.com,2013-03-08 07:32:00,
2013-03-08 02:48:00,28.8,28.5,29.75,North,0,5.8,-999.0,99,-99.99,,,0.00,Acu-Link.com,2013-03-08 07:48:00,
2013-03-08 03:03:00,28.8,28.5,29.75,North,0,5.1,-999.0,99,-99.99,,,0.00,Acu-Link.com,2013-03-08 08:03:00,
2013-03-08 03:18:00,28.8,28.5,29.75,NW,315,5.1,-999.0,99,-99.99,,,0.00,Acu-Link.com,2013-03-08 08:18:00,
2013-03-08 03:33:00,28.8,28.5,29.74,NW,315,5.8,-999.0,99,-99.99,,,0.00,Acu-Link.com,2013-03-08 08:33:00,
2013-03-08 03:48:00,28.8,28.5,29.74,North,0,5.8,-999.0,99,-99.99,,,0.00,Acu-Link.com,2013-03-08 08:48:00,
2013-03-08 04:04:00,28.9,28.7,29.74,North,0,7.4,-999.0,99,-99.99,,,0.00,Acu-Link.com,2013-03-08 09:04:00,
2013-03-08 04:19:00,28.9,28.7,29.74,WNW,292,4.7,-999.0,99,-99.99,,,0.00,Acu-Link.com,2013-03-08 09:19:00,
2013-03-08 04:34:00,28.9,28.7,29.74,NNW,337,6.3,-999.0,99,-99.99,,,0.00,Acu-Link.com,2013-03-08 09:34:00,
2013-03-08 04:49:00,28.9,28.7,29.75,NW,315,5.8,-999.0,99,-99.99,,,0.00,Acu-Link.com,2013-03-08 09:49:00,
2013-03-08 05:04:00,28.9,28.7,29.74,NNW,337,6.7,-999.0,99,-99.99,,,0.00,Acu-Link.com,2013-03-08 10:04:00,
2013-03-08 05:20:00,28.9,28.7,29.74,North,0,5.8,-999.0,99,-99.99,,,0.00,Acu-Link.com,2013-03-08 10:20:00,
2013-03-08 05:35:00,29.1,28.9,29.74,NW,315,4.7,-999.0,99,-99.99,,,0.00,Acu-Link.com,2013-03-08 10:35:00,
2013-03-08 05:50:00,29.1,28.9,29.74,WNW,292,8.3,-999.0,99,-99.99,,,0.00,Acu-Link.com,2013-03-08 10:50:00,
2013-03-08 06:05:00,29.3,29.1,29.75,NNW,337,6.3,-999.0,99,-99.99,,,0.00,Acu-Link.com,2013-03-08 11:05:00,
2013-03-08 06:20:00,29.3,29.1,29.75,NNW,337,7.4,-999.0,99,-99.99,,,0.00,Acu-Link.com,2013-03-08 11:20:00,
2013-03-08 06:36:00,29.5,29.2,29.76,NNW,337,4.7,-999.0,99,-99.99,,,0.00,Acu-Link.com,2013-03-08 11:36:00,
2013-03-08 06:51:00,29.5,29.2,29.76,NW,315,4.7,-999.0,99,-99.99,,,0.00,Acu-Link.com,2013-03-08 11:51:00,
2013-03-08 07:06:00,29.5,29.2,29.76,NNW,337,4.7,-999.0,99,-99.99,,,0.00,Acu-Link.com,2013-03-08 12:06:00,
2013-03-08 07:21:00,29.5,29.2,29.76,NNW,337,7.4,-999.0,99,-99.99,,,0.00,Acu-Link.com,2013-03-08 12:21:00,
2013-03-08 07:36:00,29.5,29.2,29.77,NNW,337,6.7,-999.0,99,-99.99,,,0.00,Acu-Link.com,2013-03-08 12:36:00,
2013-03-08 07:52:00,29.5,29.2,29.77,North,0,6.3,-999.0,99,-99.99,,,0.00,Acu-Link.com,2013-03-08 12:52:00,
2013-03-08 08:07:00,29.7,29.4,29.77,NNW,337,8.3,-999.0,99,-99.99,,,0.00,Acu-Link.com,2013-03-08 13:07:00,
2013-03-08 08:22:00,29.7,29.4,29.77,NW,315,6.7,-999.0,99,-99.99,,,0.00,Acu-Link.com,2013-03-08 13:22:00,
2013-03-08 08:37:00,29.7,29.4,29.77,North,0,6.7,-999.0,99,-99.99,,,0.00,Acu-Link.com,2013-03-08 13:37:00,
2013-03-08 08:53:00,29.5,29.2,29.78,NW,315,6.7,-999.0,99,-99.99,,,0.00,Acu-Link.com,2013-03-08 13:53:00,
2013-03-08 09:08:00,29.7,29.4,29.78,NNW,337,5.8,-999.0,99,-99.99,,,0.00,Acu-Link.com,2013-03-08 14:08:00,
2013-03-08 09:23:00,29.7,29.4,29.78,NNW,337,5.8,-999.0,99,-99.99,,,0.00,Acu-Link.com,2013-03-08 14:23:00,
2013-03-08 09:38:00,29.7,29.4,29.78,North,0,6.7,-999.0,99,-99.99,,,0.00,Acu-Link.com,2013-03-08 14:38:00,
2013-03-08 09:54:00,29.8,29.6,29.79,North,0,4.7,-999.0,99,-99.99,,,0.00,Acu-Link.com,2013-03-08 14:54:00,
2013-03-08 10:09:00,29.8,29.6,29.79,NNW,337,4.3,-999.0,99,-99.99,,,0.00,Acu-Link.com,2013-03-08 15:09:00,
2013-03-08 10:24:00,30.6,30.3,29.79,NW,315,4.7,-999.0,99,-99.99,,,0.00,Acu-Link.com,2013-03-08 15:24:00,
2013-03-08 10:39:00,31.3,30.8,29.80,North,0,5.8,-999.0,98,-99.99,,,0.00,Acu-Link.com,2013-03-08 15:39:00,
2013-03-08 10:54:00,31.5,30.5,29.79,NNE,22,6.3,-999.0,96,-99.99,,,0.00,Acu-Link.com,2013-03-08 15:54:00,
2013-03-08 11:10:00,31.1,30.6,29.79,NW,315,6.7,-999.0,98,-99.99,,,0.00,Acu-Link.com,2013-03-08 16:10:00,
2013-03-08 11:25:00,31.5,30.7,29.80,NW,315,5.1,-999.0,97,-99.99,,,0.00,Acu-Link.com,2013-03-08 16:25:00,
2013-03-08 11:40:00,31.3,30.5,29.80,NNW,337,5.8,-999.0,97,-99.99,,,0.00,Acu-Link.com,2013-03-08 16:40:00,
2013-03-08 11:55:00,31.3,30.8,29.80,NNW,337,5.8,-999.0,98,-99.99,,,0.00,Acu-Link.com,2013-03-08 16:55:00,
2013-03-08 12:10:00,31.8,31.6,29.80,NW,315,4.7,-999.0,99,-99.99,,,0.00,Acu-Link.com,2013-03-08 17:10:00,
2013-03-08 12:26:00,32.2,31.7,29.80,NNW,337,5.1,-999.0,98,-99.99,,,0.00,Acu-Link.com,2013-03-08 17:26:00,
2013-03-08 12:41:00,32.5,31.8,29.80,NNW,337,4.7,-999.0,97,-99.99,,,0.00,Acu-Link.com,2013-03-08 17:41:00,
2013-03-08 12:56:00,33.1,32.6,29.81,NNE,22,5.8,-999.0,98,-99.99,,,0.00,Acu-Link.com,2013-03-08 17:56:00,
2013-03-08 13:11:00,34.7,32.3,29.81,NNW,337,3.1,-999.0,91,-99.99,,,0.00,Acu-Link.com,2013-03-08 18:11:00,
2013-03-08 13:27:00,36.7,31.4,29.80,NW,315,3.8,-999.0,81,-99.99,,,0.00,Acu-Link.com,2013-03-08 18:27:00,
2013-03-08 13:42:00,37.6,29.7,29.80,WNW,292,4.3,-999.0,73,-99.99,,,0.00,Acu-Link.com,2013-03-08 18:42:00,
2013-03-08 13:57:00,38.5,29.6,29.80,NNE,22,4.7,-999.0,70,-99.99,,,0.00,Acu-Link.com,2013-03-08 18:57:00,
2013-03-08 14:12:00,39.0,28.6,29.81,NNW,337,5.1,-999.0,66,-99.99,,,0.00,Acu-Link.com,2013-03-08 19:12:00,
2013-03-08 14:27:00,39.0,28.6,29.81,NNW,337,5.8,-999.0,66,-99.99,,,0.00,Acu-Link.com,2013-03-08 19:27:00,
2013-03-08 14:43:00,39.2,29.2,29.81,NNW,337,6.7,-999.0,67,-99.99,,,0.01,Acu-Link.com,2013-03-08 19:43:00,
2013-03-08 14:58:00,39.6,29.2,29.81,North,0,4.3,-999.0,66,-99.99,,,0.01,Acu-Link.com,2013-03-08 19:58:00,
2013-03-08 15:13:00,39.4,29.4,29.82,NNW,337,4.7,-999.0,67,-99.99,,,0.06,Acu-Link.com,2013-03-08 20:13:00,
2013-03-08 15:28:00,39.2,29.5,29.82,NNW,337,4.7,-999.0,68,-99.99,,,0.17,Acu-Link.com,2013-03-08 20:28:00,
2013-03-08 15:43:00,39.4,29.0,29.82,West,270,6.3,-999.0,66,-99.99,,,0.24,Acu-Link.com,2013-03-08 20:43:00,
2013-03-08 15:59:00,39.4,29.7,29.83,WNW,292,5.1,-999.0,68,-99.99,,,0.30,Acu-Link.com,2013-03-08 20:59:00,
2013-03-08 16:14:00,39.6,29.5,29.84,NW,315,5.8,-999.0,67,-99.99,,,0.39,Acu-Link.com,2013-03-08 21:14:00,
2013-03-08 16:29:00,39.7,29.3,29.85,NW,315,4.3,-999.0,66,-99.99,,,0.43,Acu-Link.com,2013-03-08 21:29:00,
2013-03-08 16:44:00,39.7,29.3,29.85,NW,315,4.3,-999.0,66,-99.99,,,0.46,Acu-Link.com,2013-03-08 21:44:00,
2013-03-08 17:00:00,39.6,29.5,29.86,NNE,22,3.1,-999.0,67,-99.99,,,0.48,Acu-Link.com,2013-03-08 22:00:00,
2013-03-08 17:15:00,39.4,29.0,29.87,WNW,292,3.8,-999.0,66,-99.99,,,0.52,Acu-Link.com,2013-03-08 22:15:00,
2013-03-08 17:30:00,39.2,29.5,29.87,NNW,337,3.8,-999.0,68,-99.99,,,0.53,Acu-Link.com,2013-03-08 22:30:00,
2013-03-08 17:45:00,38.7,29.0,29.87,NW,315,4.7,-999.0,68,-99.99,,,0.54,Acu-Link.com,2013-03-08 22:45:00,
2013-03-08 18:00:00,39.2,28.8,29.88,NW,315,5.8,-999.0,66,-99.99,,,0.56,Acu-Link.com,2013-03-08 23:00:00,
2013-03-08 18:16:00,39.0,28.3,29.88,NNW,337,4.7,-999.0,65,-99.99,,,0.58,Acu-Link.com,2013-03-08 23:16:00,
2013-03-08 18:31:00,39.0,27.9,29.89,NW,315,6.7,-999.0,64,-99.99,,,0.59,Acu-Link.com,2013-03-08 23:31:00,
2013-03-08 18:46:00,39.0,27.5,29.89,NW,315,4.7,-999.0,63,-99.99,,,0.59,Acu-Link.com,2013-03-08 23:46:00,
2013-03-08 19:01:00,39.2,26.9,29.90,NNW,337,6.3,-999.0,61,-99.99,,,0.60,Acu-Link.com,2013-03-09 00:01:00,
2013-03-08 19:17:00,38.8,26.6,29.90,NNW,337,5.8,-999.0,61,-99.99,,,0.61,Acu-Link.com,2013-03-09 00:17:00,
2013-03-08 19:32:00,38.7,26.0,29.90,NNW,337,5.1,-999.0,60,-99.99,,,0.61,Acu-Link.com,2013-03-09 00:32:00,
2013-03-08 19:47:00,38.7,25.2,29.91,WNW,292,6.7,-999.0,58,-99.99,,,0.61,Acu-Link.com,2013-03-09 00:47:00,
2013-03-08 20:02:00,38.5,24.6,29.92,WNW,292,5.1,-999.0,57,-99.99,,,0.61,Acu-Link.com,2013-03-09 01:02:00,
2013-03-08 20:17:00,38.7,23.9,29.92,NW,315,6.3,-999.0,55,-99.99,,,0.63,Acu-Link.com,2013-03-09 01:17:00,
2013-03-08 20:33:00,38.8,24.1,29.93,NW,315,6.7,-999.0,55,-99.99,,,0.63,Acu-Link.com,2013-03-09 01:33:00,
2013-03-08 20:48:00,38.7,23.5,29.93,NNW,337,5.8,-999.0,54,-99.99,,,0.63,Acu-Link.com,2013-03-09 01:48:00,
2013-03-08 21:03:00,38.7,23.0,29.93,NW,315,5.1,-999.0,53,-99.99,,,0.63,Acu-Link.com,2013-03-09 02:03:00,
2013-03-08 21:18:00,38.1,23.0,29.94,NNW,337,5.1,-999.0,54,-99.99,,,0.63,Acu-Link.com,2013-03-09 02:18:00,
2013-03-08 21:33:00,37.9,22.8,29.94,NE,45,4.7,-999.0,54,-99.99,,,0.64,Acu-Link.com,2013-03-09 02:33:00,
2013-03-08 21:49:00,38.1,22.5,29.94,NNW,337,5.8,-999.0,53,-99.99,,,0.64,Acu-Link.com,2013-03-09 02:49:00,
2013-03-08 22:04:00,38.1,22.5,29.94,NW,315,6.3,-999.0,53,-99.99,,,0.64,Acu-Link.com,2013-03-09 03:04:00,
2013-03-08 22:19:00,37.6,22.5,29.94,NW,315,4.7,-999.0,54,-99.99,,,0.64,Acu-Link.com,2013-03-09 03:19:00,
2013-03-08 22:34:00,37.6,22.0,29.94,NW,315,4.7,-999.0,53,-99.99,,,0.64,Acu-Link.com,2013-03-09 03:34:00,
2013-03-08 22:50:00,37.4,21.9,29.94,NNW,337,5.8,-999.0,53,-99.99,,,0.64,Acu-Link.com,2013-03-09 03:50:00,
2013-03-08 23:05:00,37.0,21.5,29.94,NNW,337,3.8,-999.0,53,-99.99,,,0.64,Acu-Link.com,2013-03-09 04:05:00,
2013-03-08 23:20:00,37.2,21.7,29.94,NNE,22,4.3,-999.0,53,-99.99,,,0.64,Acu-Link.com,2013-03-09 04:20:00,
2013-03-08 23:35:00,37.2,21.7,29.94,North,0,6.3,-999.0,53,-99.99,,,0.64,Acu-Link.com,2013-03-09 04:35:00,
2013-03-08 23:50:00,37.0,21.5,29.95,NW,315,4.7,-999.0,53,-99.99,,,0.64,Acu-Link.com,2013-03-09 04:50:00,